When you browse on this site, cookies collect data to enhance your experience and personalize the content and advertising you see.
Visit our Privacy Policy to learn more. By continuing to use the site, you agree to this use of cookies and data.
  • In Hungary
  • List of Countries
  • For 7 days
  • Water Temperature
  • Weather Map
  • News
  • Weather Widgets
  • user-avatar
    Login

    Hourly Weather Goscieszyn

    Today, 8 April, Wednesday

    Time Temperature Precipitation Wind Pressure Humidity
    00:00 +8°C° 0 mm 3 mps 767 mmHg 65%
    01:00 +8°C° 0 mm 2 mps 767 mmHg 65%
    02:00 +7°C° 0 mm 2 mps 767 mmHg 67%
    03:00 +7°C° 0 mm 2 mps 767 mmHg 69%
    04:00 +6°C° 0 mm 2 mps 767 mmHg 71%
    05:00 +7°C° 0 mm 2 mps 767 mmHg 70%
    06:00 +8°C° 0 mm 2 mps 767 mmHg 69%
    07:00 +9°C° 0 mm 2 mps 767 mmHg 67%
    08:00 +12°C° 0 mm 2 mps 766 mmHg 63%
    09:00 +13°C° 0 mm 3 mps 766 mmHg 60%
    10:00 +16°C° 0 mm 3 mps 765 mmHg 56%
    11:00 +17°C° 0 mm 3 mps 765 mmHg 54%
    12:00 +19°C° 0 mm 3 mps 764 mmHg 52%
    13:00 +20°C° 0 mm 3 mps 764 mmHg 49%
    14:00 +21°C° 0 mm 3 mps 763 mmHg 47%
    15:00 +21°C° 0 mm 3 mps 762 mmHg 45%
    16:00 +21°C° 0 mm 3 mps 762 mmHg 43%
    17:00 +19°C° 0 mm 3 mps 761 mmHg 48%
    18:00 +17°C° 0 mm 3 mps 761 mmHg 52%
    19:00 +15°C° 0 mm 2 mps 761 mmHg 56%
    20:00 +14°C° 0 mm 2 mps 761 mmHg 55%
    21:00 +13°C° 0 mm 2 mps 761 mmHg 53%
    22:00 +12°C° 0 mm 2 mps 761 mmHg 52%
    23:00 +12°C° 0 mm 2 mps 760 mmHg 53%

    Tomorrow, 9 April, Thursday

    Time Temperature Precipitation Wind Pressure Humidity
    00:00 +10°C° 0 mm 2 mps 760 mmHg 54%
    01:00 +9°C° 0 mm 2 mps 760 mmHg 55%
    02:00 +9°C° 0 mm 2 mps 759 mmHg 57%
    03:00 +8°C° 0 mm 2 mps 759 mmHg 59%
    04:00 +8°C° 0 mm 2 mps 759 mmHg 61%
    05:00 +8°C° 0 mm 2 mps 759 mmHg 62%
    06:00 +9°C° 0 mm 3 mps 759 mmHg 64%
    07:00 +10°C° 0 mm 3 mps 759 mmHg 65%
    08:00 +12°C° 0 mm 3 mps 759 mmHg 61%
    09:00 +14°C° 0 mm 4 mps 759 mmHg 58%
    10:00 +17°C° 0 mm 4 mps 759 mmHg 54%
    11:00 +16°C° 0 mm 5 mps 759 mmHg 51%
    12:00 +17°C° 0 mm 5 mps 759 mmHg 48%
    13:00 +19°C° 0 mm 6 mps 759 mmHg 45%
    14:00 +17°C° 0 mm 6 mps 759 mmHg 46%
    15:00 +17°C° 0 mm 6 mps 759 mmHg 47%
    16:00 +16°C° 0 mm 6 mps 759 mmHg 48%
    17:00 +15°C° 0 mm 5 mps 760 mmHg 55%
    18:00 +13°C° 0 mm 5 mps 760 mmHg 62%
    19:00 +11°C° 0 mm 4 mps 760 mmHg 70%
    20:00 +10°C° 0 mm 3 mps 761 mmHg 66%
    21:00 +8°C° 0 mm 3 mps 761 mmHg 63%
    22:00 +7°C° 0 mm 3 mps 762 mmHg 59%
    23:00 +5°C° 0 mm 3 mps 762 mmHg 60%

    Day after tomorrow, 10 April, Friday

    Time Temperature Precipitation Wind Pressure Humidity
    00:00 +5°C° 0 mm 2 mps 762 mmHg 61%
    01:00 +4°C° 0 mm 2 mps 762 mmHg 62%
    02:00 +4°C° 0 mm 2 mps 763 mmHg 65%
    03:00 +4°C° 0 mm 2 mps 763 mmHg 68%
    04:00 +4°C° 0 mm 2 mps 763 mmHg 70%
    05:00 +4°C° 0 mm 2 mps 763 mmHg 69%
    06:00 +5°C° 0 mm 2 mps 763 mmHg 68%
    07:00 +6°C° 0 mm 2 mps 763 mmHg 67%
    08:00 +7°C° 0 mm 2 mps 763 mmHg 61%
    09:00 +9°C° 0 mm 3 mps 763 mmHg 54%
    10:00 +10°C° 0 mm 3 mps 764 mmHg 48%
    11:00 +11°C° 0 mm 3 mps 763 mmHg 44%
    12:00 +12°C° 0 mm 3 mps 763 mmHg 41%
    13:00 +13°C° 0 mm 3 mps 763 mmHg 37%
    14:00 +13°C° 0 mm 3 mps 763 mmHg 37%
    15:00 +13°C° 0 mm 3 mps 762 mmHg 37%
    16:00 +14°C° 0 mm 2 mps 762 mmHg 37%
    17:00 +12°C° 0 mm 2 mps 762 mmHg 43%
    18:00 +10°C° 0 mm 2 mps 762 mmHg 48%
    19:00 +8°C° 0 mm 2 mps 762 mmHg 53%
    20:00 +8°C° 0 mm 1 mps 762 mmHg 56%
    21:00 +7°C° 0 mm 1 mps 762 mmHg 59%
    22:00 +7°C° 0 mm 1 mps 762 mmHg 62%
    23:00 +6°C° 0 mm 1 mps 762 mmHg 64%

    11 April, Saturday

    Time Temperature Precipitation Wind Pressure Humidity
    00:00 +6°C° 0 mm 1 mps 762 mmHg 65%
    01:00 +4°C° 0 mm 0 mps 762 mmHg 67%
    02:00 +5°C° 0 mm 1 mps 762 mmHg 69%
    03:00 +5°C° 0 mm 1 mps 762 mmHg 70%
    04:00 +4°C° 0 mm 1 mps 762 mmHg 72%
    05:00 +5°C° 0 mm 1 mps 762 mmHg 70%
    06:00 +6°C° 0 mm 1 mps 762 mmHg 69%
    07:00 +7°C° 0 mm 1 mps 763 mmHg 67%
    08:00 +9°C° 0 mm 1 mps 763 mmHg 61%
    09:00 +10°C° 0 mm 1 mps 763 mmHg 54%
    10:00 +12°C° 0 mm 2 mps 763 mmHg 48%
    11:00 +13°C° 0 mm 2 mps 763 mmHg 43%
    12:00 +14°C° 0 mm 2 mps 762 mmHg 39%
    13:00 +15°C° 0 mm 2 mps 762 mmHg 34%
    14:00 +15°C° 0 mm 1 mps 762 mmHg 34%
    15:00 +15°C° 0 mm 1 mps 761 mmHg 33%
    16:00 +16°C° 0 mm 1 mps 761 mmHg 33%
    17:00 +14°C° 0 mm 1 mps 761 mmHg 37%
    18:00 +12°C° 0 mm 1 mps 761 mmHg 42%
    19:00 +10°C° 0 mm 1 mps 761 mmHg 46%
    20:00 +10°C° 0 mm 1 mps 760 mmHg 49%
    21:00 +9°C° 0 mm 1 mps 760 mmHg 51%
    22:00 +8°C° 0 mm 2 mps 760 mmHg 54%
    23:00 +7°C° 0 mm 2 mps 760 mmHg 56%

    12 April, Sunday

    Time Temperature Precipitation Wind Pressure Humidity
    00:00 +7°C° 0 mm 2 mps 760 mmHg 58%
    01:00 +6°C° 0 mm 2 mps 760 mmHg 61%
    02:00 +6°C° 0 mm 2 mps 759 mmHg 63%
    03:00 +6°C° 0 mm 2 mps 759 mmHg 64%
    04:00 +6°C° 0 mm 2 mps 758 mmHg 66%
    05:00 +6°C° 0 mm 2 mps 758 mmHg 66%
    06:00 +7°C° 0 mm 2 mps 757 mmHg 66%
    07:00 +8°C° 0 mm 2 mps 757 mmHg 66%
    08:00 +11°C° 0 mm 3 mps 757 mmHg 59%
    09:00 +13°C° 0 mm 3 mps 756 mmHg 53%
    10:00 +17°C° 0 mm 3 mps 756 mmHg 47%
    11:00 +18°C° 0 mm 4 mps 755 mmHg 44%
    12:00 +19°C° 0 mm 4 mps 755 mmHg 41%
    13:00 +21°C° 0 mm 4 mps 754 mmHg 37%
    14:00 +21°C° 0 mm 4 mps 754 mmHg 38%
    15:00 +21°C° 0 mm 4 mps 753 mmHg 38%
    16:00 +21°C° 0 mm 4 mps 752 mmHg 38%
    17:00 +19°C° 0 mm 4 mps 752 mmHg 44%
    18:00 +17°C° 0 mm 3 mps 752 mmHg 51%
    19:00 +15°C° 0 mm 2 mps 752 mmHg 57%
    20:00 +14°C° 0 mm 2 mps 752 mmHg 60%
    21:00 +13°C° 0 mm 2 mps 752 mmHg 64%
    22:00 +12°C° 0 mm 2 mps 751 mmHg 67%
    23:00 +12°C° 0 mm 2 mps 751 mmHg 70%

    13 April, Monday

    Time Temperature Precipitation Wind Pressure Humidity
    00:00 +10°C° 0 mm 2 mps 751 mmHg 73%
    01:00 +10°C° 0 mm 2 mps 751 mmHg 76%
    02:00 +10°C° 0 mm 3 mps 751 mmHg 76%
    03:00 +10°C° 0 mm 3 mps 750 mmHg 77%
    04:00 +10°C° 0 mm 3 mps 750 mmHg 77%
    05:00 +10°C° 0.2 mm 3 mps 750 mmHg 81%
    06:00 +10°C° 0.2 mm 4 mps 750 mmHg 84%
    07:00 +9°C° 0.2 mm 5 mps 750 mmHg 88%
    08:00 +9°C° 0.1 mm 5 mps 751 mmHg 81%
    09:00 +10°C° 0.1 mm 6 mps 751 mmHg 74%
    10:00 +10°C° 0.1 mm 7 mps 752 mmHg 67%
    11:00 +10°C° 0.1 mm 7 mps 752 mmHg 68%
    12:00 +9°C° 0.1 mm 6 mps 753 mmHg 69%
    13:00 +9°C° 0.1 mm 6 mps 754 mmHg 71%
    14:00 +9°C° 0 mm 7 mps 754 mmHg 62%
    15:00 +7°C° 0 mm 8 mps 755 mmHg 54%
    16:00 +7°C° 0 mm 8 mps 755 mmHg 46%
    17:00 +5°C° 0 mm 7 mps 756 mmHg 46%
    18:00 +3°C° 0 mm 6 mps 757 mmHg 46%
    19:00 +1°C° 0 mm 5 mps 758 mmHg 45%
    20:00 0°C° 0 mm 4 mps 759 mmHg 47%
    21:00 +1°C° 0 mm 3 mps 760 mmHg 49%
    22:00 +1°C° 0 mm 2 mps 761 mmHg 50%
    23:00 -1°C° 0 mm 3 mps 761 mmHg 52%
    Show more